Home   Weather   Lens   Past weeks

Flag for France Past Weather in Lens, Nord-Pas-de-Calais, France — Yesterday and Last 2 Weeks

Now
73 °F

Sunny.


Feels Like: 77 °F
Forecast: 56 / 74 °F
Wind: 14 mph from Northeast

Location: Lille Airport

Current Time: Jun 26, 2017 at 9:00:01 pm

Latest Report: Jun 26, 2017 at 8:00 pm


Visibility: 10 mi

Pressure: 29.89 "Hg

Humidity: 41%

Dew Point: 48 °F

Location of LensLocation

Past Weather in Lens — Graph

°F

Lens Temperature Yesterday

Maximum temperature yesterday: 72 °F (at 2:00 pm)
Minimum temperature yesterday: 61 °F (at 6:30 am)
Average temperature yesterday: 65 °F

High & Low Weather Summary for the Past Weeks

 TemperatureHumidityPressure
High93 °F (Jun 21, 5:30 pm)100% (Jun 13, 5:00 am)30.33 "Hg (Jun 13, 5:00 am)
Low48 °F (Jun 13, 5:00 am)29% (Jun 19, 4:30 pm)29.86 "Hg (Jun 22, 4:30 am)
Average69 °F63%30.06 "Hg
* Reported Jun 11 8:00 pm — Jun 26 8:00 pm, Lens. Weather by CustomWeather, © 2017

Note: Actual official high and low records may vary slightly from our data, if they occured in-between our weather recording intervals... More about our weather records

Advertising

Lens Weather History for the Previous 24 Hours

Scroll right to see more
 ConditionsComfort  
Time TempWeatherWind HumidityBarometerVisibility
8:00 pm
Mon, Jun 26
73 °FSunny.14 mph41%29.89 "Hg10 mi
7:30 pm75 °FPassing clouds.10 mph39%29.86 "HgN/A
7:00 pm75 °FPassing clouds.10 mph39%29.89 "HgN/A
6:30 pm75 °FPassing clouds.10 mph39%29.89 "HgN/A
6:00 pm77 °FPassing clouds.9 mph39%29.89 "HgN/A
5:30 pm77 °FPassing clouds.10 mph39%29.89 "HgN/A
5:00 pm77 °FSunny.5 mph39%29.89 "Hg10 mi
4:30 pm77 °FSunny.6 mph36%29.92 "Hg10 mi
4:00 pm77 °FSunny.5 mph39%29.92 "Hg10 mi
3:30 pm75 °FPassing clouds.7 mph41%29.92 "HgN/A
3:00 pm75 °FPassing clouds.7 mph41%29.92 "HgN/A
2:30 pm75 °FSunny.3 mph41%29.92 "Hg10 mi
2:00 pm75 °FPartly sunny.5 mph44%29.95 "HgN/A
1:30 pm73 °FScattered clouds.3 mph44%29.95 "HgN/A
1:00 pm70 °FPartly sunny.3 mph50%29.95 "HgN/A
12:30 pm70 °FOvercast.3 mph53%29.95 "HgN/A
12:00 pm68 °FOvercast.2 mph53%29.95 "HgN/A
11:30 am70 °FBroken clouds.3 mph53%29.95 "HgN/A
11:00 am70 °FPartly sunny.7 mph53%29.95 "HgN/A
10:30 am68 °FBroken clouds.6 mph56%29.95 "HgN/A
10:00 am66 °FBroken clouds.7 mph68%29.95 "HgN/A
9:30 am66 °FPartly sunny.6 mph68%29.95 "HgN/A
9:00 am64 °FMore clouds than sun.5 mph73%29.95 "HgN/A
8:30 am63 °FOvercast.5 mph77%29.95 "HgN/A
8:00 am61 °FOvercast.6 mph88%29.95 "HgN/A
7:30 am61 °FOvercast.7 mph88%29.95 "HgN/A
7:00 am61 °FMore clouds than sun.6 mph88%29.95 "HgN/A
6:30 am59 °FMore clouds than sun.7 mph94%29.95 "HgN/A
6:00 am59 °FPartly sunny.5 mph88%29.95 "HgN/A
5:30 am59 °FPassing clouds.6 mph88%29.92 "HgN/A
5:00 am61 °FOvercast.5 mph83%29.92 "HgN/A
4:30 am61 °FPartly cloudy.6 mph83%29.92 "HgN/A
3:30 am61 °FMostly cloudy.8 mph83%29.95 "HgN/A
3:00 am61 °FMostly cloudy.9 mph88%29.95 "HgN/A
2:30 am61 °FOvercast.9 mph83%29.95 "HgN/A
2:00 am61 °FMostly cloudy.7 mph83%29.95 "HgN/A
1:30 am59 °FOvercast.7 mph88%29.95 "HgN/A
1:00 am61 °FPassing clouds.9 mph83%29.95 "HgN/A
12:30 am61 °FClear.12 mph83%29.95 "Hg10 mi
12:00 am63 °FClear.15 mph77%29.95 "Hg10 mi
11:30 pm
Sun, Jun 25
63 °FPassing clouds.16 mph77%29.95 "HgN/A
11:00 pm64 °FPartly cloudy.14 mph73%29.95 "HgN/A
10:30 pm64 °FMostly cloudy.16 mph73%29.95 "HgN/A
10:00 pm64 °FMostly cloudy.15 mph73%29.95 "HgN/A
9:30 pm64 °FMore clouds than sun.16 mph73%29.95 "HgN/A
9:00 pm66 °FMostly cloudy.20 mph68%29.95 "HgN/A
Weather by CustomWeather, © 2017

See weather overviewHow to use our weather pages